Powrót do katalogu

STARLINK-34149

AktywnyŁącznośćVLEO
NORAD 64140·PAYLOAD·🇺🇸 United States

Wystrzelony May 24, 2025 z Cape Canaveral Space Force Station

Loading…

Następne Przeloty (najbliższe 24 godziny)

TLE

ŚwieżeSource: CelesTrak SupGP

Epoka: Sep 15, 2026, 03:26 UTC

1 64140C 25111T   26258.14354167 -.00009954  00000+0 -36040-3 0  2581
2 64140  43.0027  87.8951 0001477 269.4457 259.7096 15.27594600    15

Śledź STARLINK-34149 w czasie rzeczywistym z AllMySat

Download on the App Store